Find Runner-1

NORAD ID: 56953 Int'l Des: 2023-084 Owner: IMAG/FACH Country: IL operational
LEOCIRCULARRETROGRADESSO

リアルタイム位置

3D地球を読み込み中...

Runner-1について

説明を読み込み中...

次回通過

Passes for default location (London). Set your location on the main map for personalized predictions.

高度履歴

Loading altitude history...

軌道要素

1 56953U 23084X 26139.36449610 .00006197 00000-0 17270-3 0 9992
2 56953 97.6207 280.3905 0008964 63.1569 297.0590 15.37131977163179
Epoch: May 19, 2026 • Age: 17 hours

現在のステータス

高度 486.3 km
速度 7.62 km/s
衛星直下点 -74.83°S, 48.77°E
打ち上げ日 Jun 12, 2023
運用期間 2.9 years
タイプ other

技術仕様

分類 Payload
質量 86.00 kg
乾燥質量 86.00 kg
総質量 86.00 kg
長さ 0.85 m
直径 0.55 m
スパン 0.85 m
形状 Box
製造者 TYVAK/IMAG
バスタイプ Runner
フェーズステータス In Orbit
所有者/国 IMAG/FACH/IL

Most Searched